This is the latest recevied weather packets stored in our database for station/object KU4DD. If no packets are shown the sender has not sent any weather packets the latest 10 day(s).
| Time | Temp. | Humidity | Pressure | Rain* | Wind** | Luminosity | Snow |
|---|---|---|---|---|---|---|---|
| 1777477635 | 21.67° C | 88% | 1010.8 hPa | 0 mm | - | - | - |
| 1777474514 | 20.56° C | 57% | 1011.5 hPa | 0 mm | - | - | - |
| 1777469185 | 21.11° C | 59% | 1011.9 hPa | 0 mm | - | - | - |
| 1777466672 | 21.11° C | 60% | 1012.9 hPa | 0 mm | - | - | - |
| 1777465107 | 21.11° C | 59% | 1012.9 hPa | 0 mm | - | - | - |
| 1777462364 | 20° C | 59% | 1012.9 hPa | 0 mm | - | - | - |
| 1777461749 | 20.56° C | 59% | 1012.5 hPa | 0 mm | - | - | - |
| 1777459923 | 20° C | 59% | 1012.5 hPa | 0 mm | - | - | - |
| 1777459307 | 20.56° C | 59% | 1012.2 hPa | 0 mm | - | - | - |
| 1777456571 | 20.56° C | 58% | 1011.9 hPa | 0 mm | - | - | - |
| 1777455955 | 20.56° C | 58% | 1012.2 hPa | 0 mm | - | - | - |
| 1777452913 | 20.56° C | 58% | 1012.2 hPa | 0 mm | - | - | - |
| 1777452600 | 20.56° C | 58% | 1011.9 hPa | 0 mm | - | - | - |
| 1777452289 | 20.56° C | 58% | 1011.9 hPa | 0 mm | - | - | - |
| 1777450764 | 20.56° C | 58% | 1012.2 hPa | 0 mm | - | - | - |
| 1777448329 | 20.56° C | 58% | 1011.9 hPa | 0 mm | - | - | - |
| 1777446504 | 20.56° C | 58% | 1012.5 hPa | 0 mm | - | - | - |
| 1777444975 | 20.56° C | 59% | 1012.9 hPa | 0 mm | - | - | - |
| 1777444662 | 20.56° C | 58% | 1012.9 hPa | 0 mm | - | - | - |
| 1777440699 | 20.56° C | 57% | 1013.5 hPa | 0 mm | - | - | - |
| 1777440385 | 20.56° C | 57% | 1013.5 hPa | 0 mm | - | - | - |
| 1777438848 | 20.56° C | 57% | 1014.2 hPa | 0 mm | - | - | - |
| 1777436417 | 20.56° C | 56% | 1015.2 hPa | 0 mm | - | - | - |
| 1777433684 | 20° C | 55% | 1015.2 hPa | 0 mm | - | - | - |
| 1777431553 | 20.56° C | 56% | 1015.9 hPa | 0 mm | - | - | - |
* Rain latest hour (hover to see other rain measurements)
** Current wind speed in m/s (hover to see current wind gust speed)